[TLELIST] Archives

 

[TLELIST] Current TLEs

October 29th 2024 PST

HST 1 20580U 90037B 24302.30119302 .00016298 00000-0 71367-3 0 9997 2 20580 28.4667 171.6148 0002879 48.6465 311.4376 15.20577057697294 ISS (ZARYA) 1 25544U 98067A 24303.40526963 .00046268 00000-0 79212-3 0 9997 2 25544 51.6406 10.5581 0009124 114.5833 332.9952 15.50728255479367 CXO 1 25867U 99040B 24305.37135332 .00000826 00000-0 00000-0 0 9997 2 25867 44.2271 142.9150 8743739 303.4581 0.2168 0.37813973 15078 ...Continue Reading

[TLELIST] Current TLEs

October 29th 2024 PST

HST 1 20580U 90037B 24302.30119302 .00016298 00000-0 71367-3 0 9997 2 20580 28.4667 171.6148 0002879 48.6465 311.4376 15.20577057697294 ISS (ZARYA) 1 25544U 98067A 24303.40526963 .00046268 00000-0 79212-3 0 9997 2 25544 51.6406 10.5581 0009124 114.5833 332.9952 15.50728255479367 CXO 1 25867U 99040B 24305.37135332 .00000826 00000-0 00000-0 0 9997 2 25867 44.2271 142.9150 8743739 303.4581 0.2168 0.37813973 15078 ...Continue Reading

[TLELIST] Current TLEs

October 28th 2024 PST

HST 1 20580U 90037B 24301.97302606 .00017913 00000-0 78531-3 0 9995 2 20580 28.4670 173.8239 0002925 45.0096 315.0734 15.20567821697247 ISS (ZARYA) 1 25544U 98067A 24302.37512067 .00046685 00000-0 80180-3 0 9991 2 25544 51.6401 15.6687 0009341 112.1320 340.8898 15.50632685479202 CXO 1 25867U 99040B 24302.72651146 .00000817 00000-0 00000-0 0 9999 2 25867 44.1830 143.0661 8749087 303.3751 0.1470 0.37813506 15063 ...Continue Reading

[TLELIST] Current TLEs

October 27th 2024 PST

HST 1 20580U 90037B 24301.05414627 .00015754 00000-0 69048-3 0 9995 2 20580 28.4670 180.0070 0002906 35.7323 324.3464 15.20534933697362 ISS (ZARYA) 1 25544U 98067A 24301.34133394 .00033460 00000-0 58038-3 0 9993 2 25544 51.6405 20.7916 0009049 110.9446 327.5364 15.50512619479044 CXO 1 25867U 99040B 24302.72651146 .00000817 00000-0 00000-0 0 9999 2 25867 44.1830 143.0661 8749087 303.3751 0.1470 0.37813506 15063 ...Continue Reading

[TLELIST] Current TLEs

October 27th 2024 PST

HST 1 20580U 90037B 24301.05414627 .00015754 00000-0 69048-3 0 9995 2 20580 28.4670 180.0070 0002906 35.7323 324.3464 15.20534933697362 ISS (ZARYA) 1 25544U 98067A 24301.34133394 .00033460 00000-0 58038-3 0 9993 2 25544 51.6405 20.7916 0009049 110.9446 327.5364 15.50512619479044 CXO 1 25867U 99040B 24302.72651146 .00000817 00000-0 00000-0 0 9999 2 25867 44.1830 143.0661 8749087 303.3751 0.1470 0.37813506 15063 ...Continue Reading

[TLELIST] Current TLEs

October 26th 2024 PST

HST 1 20580U 90037B 24300.00397504 .00013260 00000-0 58046-3 0 9999 2 20580 28.4669 187.0727 0002913 25.3854 334.6882 15.20503902697201 ISS (ZARYA) 1 25544U 98067A 24300.37653146 .00035408 00000-0 61498-3 0 9995 2 25544 51.6400 25.5829 0009230 107.6057 342.0353 15.50445611478897 CXO 1 25867U 99040B 24302.72651146 .00000817 00000-0 00000+0 0 9998 2 25867 44.1830 143.0661 8749087 303.3751 0.1470 0.37813506 26223 ...Continue Reading

[TLELIST] Current TLEs

October 25th 2024 PST

HST 1 20580U 90037B 24298.42868144 .00012084 00000-0 52893-3 0 9991 2 20580 28.4668 197.6713 0002833 9.1825 350.8820 15.20462166696703 ISS (ZARYA) 1 25544U 98067A 24299.47422089 .00136615 00000-0 23242-2 0 9999 2 25544 51.6386 30.0506 0009349 106.1770 343.9010 15.50396418478755 CXO 1 25867U 99040B 24300.08143777 .00000840 00000-0 00000-0 0 9998 2 25867 44.1200 143.2501 8753999 303.2600 0.0818 0.37809941 15050 ...Continue Reading

[TLELIST] Current TLEs

October 25th 2024 PST

HST 1 20580U 90037B 24298.42868144 .00012084 00000-0 52893-3 0 9991 2 20580 28.4668 197.6713 0002833 9.1825 350.8820 15.20462166696703 ISS (ZARYA) 1 25544U 98067A 24299.47422089 .00136615 00000-0 23242-2 0 9999 2 25544 51.6386 30.0506 0009349 106.1770 343.9010 15.50396418478755 CXO 1 25867U 99040B 24300.08143777 .00000840 00000-0 00000-0 0 9998 2 25867 44.1200 143.2501 8753999 303.2600 0.0818 0.37809941 15050 ...Continue Reading

[TLELIST] Current TLEs

October 24th 2024 PST

HST 1 20580U 90037B 24297.90357387 .00011172 00000-0 48860-3 0 9991 2 20580 28.4668 201.2040 0002759 2.7194 357.3414 15.20447821696626 ISS (ZARYA) 1 25544U 98067A 24298.44436653 .00092212 00000-0 15850-2 0 9997 2 25544 51.6393 35.1562 0008960 100.4786 357.9022 15.50314473478594 CXO 1 25867U 99040B 24300.08143777 .00000840 00000-0 00000-0 0 9998 2 25867 44.1200 143.2501 8753999 303.2600 0.0818 0.37809941 15050 ...Continue Reading

[TLELIST] Current TLEs

October 24th 2024 PST

HST 1 20580U 90037B 24297.90357387 .00011172 00000-0 48860-3 0 9991 2 20580 28.4668 201.2040 0002759 2.7194 357.3414 15.20447821696626 ISS (ZARYA) 1 25544U 98067A 24298.44436653 .00092212 00000-0 15850-2 0 9997 2 25544 51.6393 35.1562 0008960 100.4786 357.9022 15.50314473478594 CXO 1 25867U 99040B 24300.08143777 .00000840 00000-0 00000-0 0 9998 2 25867 44.1200 143.2501 8753999 303.2600 0.0818 0.37809941 15050 ...Continue Reading
  • This mailing list is a public mailing list - anyone may join or leave, at any time.
  • This mailing list is announce-only.

International Space Station (ISS) / Hubble Space Telescope (HST) / Chandra X-Ray Observatory Orbital Data via EMAIL

Privacy Policy:

Private list